Regional Weather Roundup
Issued by NWS

Home | Current Version | Previous Version | Text Only | Print | Product List | Glossary On
Versions: 1 2 3 4 5 6 7 8 9 10 11 12 13 14 15 16 17 18 19 20 21 22 23 24 25 26 27 28 29 30 31 32 33 34 35 36 37 38 39 40 41 42 43 44 45 46 47 48 49 50
604
ASUS43 KTOP 191808
RWRKS

WEATHER ROUNDUP FOR KANSAS
NATIONAL WEATHER SERVICE GOODLAND KS
1200 PM CST THU JAN 19 2017

NOTE:  "FAIR" INDICATES FEW OR NO CLOUDS BELOW 12,000 FEET WITH NO
SIGNIFICANT WEATHER AND/OR OBSTRUCTIONS TO VISIBILITY.

KSZ001>006-013>018-027>032-041>047-191900-
NORTHWEST KANSAS

CITY           SKY/WX    TMP DP  RH WIND       PRES   REMARKS
GOODLAND       FOG       32  32 100 S6        29.61F VSB 1/4
6HR MIN TEMP:  22; 6HR MAX TEMP:  32;

HAYS           CLOUDY    45  42  89 S13       29.63F
HILL CITY      CLOUDY    45  42  89 S9        29.63F
6HR MIN TEMP:  42; 6HR MAX TEMP:  45;

RUSSELL        CLOUDY    46  43  89 S13       29.63F
6HR MIN TEMP:  43; 6HR MAX TEMP:  46;

$$

KSZ061>065-074>080-084>089-191900-
SOUTHWEST KANSAS

CITY           SKY/WX    TMP DP  RH WIND       PRES   REMARKS
DODGE CITY     CLOUDY    43  39  86 SE8       29.60F
6HR MIN TEMP:  42; 6HR MAX TEMP:  44;

GARDEN CITY    CLOUDY    41  38  89 CALM      29.60S
6HR MIN TEMP:  39; 6HR MAX TEMP:  41;

GREAT BEND     LGT RAIN  45  44  97 SE13      29.63F
LIBERAL        CLOUDY    39  36  87 N7        29.60S
PRATT          CLOUDY    43  40  91 S16       29.62F
6HR MIN TEMP:  41; 6HR MAX TEMP:  43;

$$

KSZ066>073-081>083-090>101-191900-
SOUTHEAST KANSAS

CITY           SKY/WX    TMP DP  RH WIND       PRES   REMARKS
CHANUTE        CLOUDY    47  45  93 S9        29.75F
6HR MIN TEMP:  44; 6HR MAX TEMP:  47;

COFFEYVILLE    CLOUDY    49  47  93 S9        29.75F
6HR MIN TEMP:  45; 6HR MAX TEMP:  49;

HUTCHINSON     CLOUDY    47  45  93 SE12      29.66F FOG
6HR MIN TEMP:  44; 6HR MAX TEMP:  46;

MEDICINE LODGE   N/A     46  43  89 S10G22    29.62F
NEWTON         CLOUDY    45  44  97 SE12      29.69F FOG
PARSONS        CLOUDY    47  46  97 VRB6      29.76F
6HR MIN TEMP:  45; 6HR MAX TEMP:  47;

WICHITA INTL   CLOUDY    48  45  89 SE13      29.67F
6HR MIN TEMP:  45; 6HR MAX TEMP:  48; 6HR PCP: TRACE;

WICHITA JABRA  CLOUDY    48  45  89 SE13      29.68F
6HR MIN TEMP:  44; 6HR MAX TEMP:  48;

WICHITA MCCONL CLOUDY    48  44  86 S12       29.68F
WINFIELD       CLOUDY    50  44  80 SE15      29.69F
6HR MIN TEMP:  46; 6HR MAX TEMP:  51;

$$

KSZ007>012-019>026-033>040-048>060-102>105-191900-
NORTHEAST KANSAS

CITY           SKY/WX    TMP DP  RH WIND       PRES   REMARKS
CONCORDIA      CLOUDY    45  44  97 SE9       29.68F
6HR MIN TEMP:  42; 6HR MAX TEMP:  45;

EMPORIA        CLOUDY    45  44  97 S12       29.72F FOG
6HR MIN TEMP:  43; 6HR MAX TEMP:  45;

LAWRENCE       CLOUDY    47  46  97 E7        29.76F
6HR MIN TEMP:  42; 6HR MAX TEMP:  47;

MANHATTAN      CLOUDY    46  43  89 SE9       29.72F
6HR MIN TEMP:  43; 6HR MAX TEMP:  47;

MARYSVILLE     CLOUDY    43  43 100 SE6       29.72F
OLATHE IND     CLOUDY    45  45 100 SE9       29.75F FOG
6HR MIN TEMP:  43; 6HR MAX TEMP:  45;

OLATHE EXE     CLOUDY    44  44 100 SE5       29.75F FOG
6HR MIN TEMP:  42; 6HR MAX TEMP:  44;

SALINA         CLOUDY    46  45  96 SE12      29.69F FOG
TOPEKA BILLARD CLOUDY    47  44  90 SE6       29.75F FOG
6HR MIN TEMP:  44; 6HR MAX TEMP:  47;

TOPEKA FORBES  CLOUDY    47  45  93 S8        29.74F FOG
6HR MIN TEMP:  45; 6HR MAX TEMP:  47;

$$




USA.gov is the U.S. government's official web portal to all federal, state and local government web resources and services.